Regional Weather Roundup
Issued by NWS Jackson, KY

Home | Current Version | Previous Version | Graphics & Text | Print | Product List | Glossary Off
Versions: 1 2 3 4 5 6 7 8 9 10 11 12 13 14 15 16 17 18 19 20 21 22 23 24 25 26 27 28 29 30 31 32 33 34 35 36 37 38 39 40 41 42 43 44 45 46 47 48 49 50

000
ASUS43 KJKL 222010
RWRJKL

EAST KENTUCKY HOURLY WEATHER ROUNDUP
NATIONAL WEATHER SERVICE JACKSON KY
400 PM EDT WED MAR 22 2017

NOTE: "FAIR" INDICATES FEW OR NO CLOUDS BELOW 12,000 FEET WITH
NO SIGNIFICANT WEATHER AND/OR OBSTRUCTIONS TO VISIBILITY.

* THESE REPORTS ARE NOT UNDER NWS QUALITY CONTROL AND MAY NOT
  REPORT WEATHER SUCH AS PRECIPITATION AND FOG.

KYZ079-080-083-085-087-088-110-112-115-119-120-222100
...EASTERN KENTUCKY...

CITY           SKY/WX    TMP DP  RH WIND       PRES   REMARKS
JACKSON        SUNNY     50  17  27 VRB6      30.34F
LONDON         SUNNY     51  10  19 N13G20    30.31F
SOMERSET*      SUNNY     48  19  32 N10G17    30.34F
MONTICELLO*    SUNNY     50  19  29 N17G26    30.34F
WILLIAMSBURG*  CLEAR     52  14  22 N8        30.30F
MIDDLESBORO*   SUNNY     56  19  24 N5        30.28F
HARLAN APT*    CLEAR     52  14  22 NW6       30.28F
PIKE CO APT*     N/A     46  17  31 N8        30.33F
BIG SANDY APT* CLEAR     47  18  30 N7        30.35F
MOREHEAD APT*  CLEAR     46  14  27 NW13      30.39F
ASHLAND*       SUNNY     46  21  36 NE6       30.40F
$$

KYZ035-036-041-042-044-050-067-078-099-222100
...CENTRAL KENTUCKY...

CITY           SKY/WX    TMP DP  RH WIND       PRES   REMARKS
MT STERLING*   SUNNY     45  21  39 NE10      30.40F
FLEMING/MASON* SUNNY     42  17  36 N10       30.42F
DANVILLE*      SUNNY     46  21  36 NE15      30.37F
LEXINGTON      SUNNY     46  16  30 N17G24    30.39F
FRANKFORT      SUNNY     48  10  21 NE12      30.39F
LOUISVILLE     MOSUNNY   50  11  20 NE14G21   30.40F
LEBANON*         N/A     48  14  25 NE9G17    30.37F
GLASGOW*       SUNNY     50  19  28 NE14G21   30.34F
BOWLING GREEN  SUNNY     54  17  23 NE13      30.34F
$$

KYZ091>093-OHZ055-061-077-WVZ005-015-034-035-042-222100
...SOUTHERN OHIO/WEST VIRGINIA...

CITY           SKY/WX    TMP DP  RH WIND       PRES   REMARKS
COVINGTON      SUNNY     41  18  39 NE12G21   30.44F
COLUMBUS       SUNNY     40  16  37 VRB7G17   30.47F
DAYTON         SUNNY     38  18  44 NE13      30.48F WCI  30
WILMINGTON     SUNNY     36  23  59 NE14G22   30.45F WCI  27
HUNTINGTON     SUNNY     45  17  32 NE8G18    30.39F
CHARLESTON     SUNNY     46  16  30 NE7       30.38S
PINEVILLE*     SUNNY     50  12  22 MISG      30.34S
BECKLEY        SUNNY     43  15  32 N16G23    30.28F
BLUEFIELD      SUNNY     43  15  32 NW9       30.25S
LOGAN CO APT*    N/A     45  16  31 CALM      30.33S
$$

VAZ002-007-008-TNZ017-027-036-066-071-222100
...SOUTHWEST VIRGINIA/EAST TENNESSEE...

CITY           SKY/WX    TMP DP  RH WIND       PRES   REMARKS
WISE*          SUNNY     46  18  31 CALM      30.28S
JONESVILLE*      N/A     55  16  21 N8        30.28F
ABINGDON*      SUNNY     53  12  20 E7        30.25S
BRISTOL        MOSUNNY   56  20  24 NE7       30.25F
MORRISTOWN*    CLEAR     57  18  21 NE8       30.23F
SEVIERVILLE*   CLEAR     55  21  26 N9        30.24S
KNOXVILLE      CLOUDY    58  18  21 N14G22    30.23F
LAFOLLETTE*    CLEAR     55  19  24 NE10      30.29F
OAK RIDGE      MOSUNNY   60  14  16 NE9G18    30.25F
CROSSVILLE     CLOUDY    53  14  21 N13G22    30.25F
NASHVILLE      PTSUNNY   57  20  23 E13G22    30.30F
$$

...KEY TO REMARKS...
VSB - VISIBILITY IN MILES
WCI - WIND CHILL INDEX
HX  - HEAT INDEX

$$



USA.gov is the U.S. government's official web portal to all federal, state and local government web resources and services.